Location: ??
(35.5052°N, 139.7262°E)
Time: 01:35:07
(UTC+00:00)

Lacrosse 4 Rocket - Pass Details

Date: 20 June 2021
Orbit: 543 x 614 km, 68.0° (Epoch: 26 July)

Event Time Altitude Azimuth Distance (km) Brightness Sun altitude
Rises 15:37:46 0° 357° (N) 2,731 5.9 -29.6°
Reaches altitude 10° 15:41:28 10° 31° (NNE) 1,820 4.8 -29.4°
Maximum altitude 15:42:52 12° 51° (NE) 1,720 4.4 -29.4°
Drops below altitude 10° 15:44:16 10° 72° (ENE) 1,811 4.3 -29.3°
Enters shadow 15:45:38 - 88° (E) 2,063 4.4 -29.2°
